{"data":{"norad_id":56394,"epoch":"2026-05-25T05:24:45.741024Z","epoch_age_seconds":66233,"freshness":"FRESH","line1":"1 56394U 23061W   26145.22552941  .00000624  00000+0  32210-4 0  9990","line2":"2 56394  43.0027 114.4829 0001185 266.5545  93.5172 15.27572628168582","mean_motion":15.27572628,"eccentricity":0.0001185,"inclination_deg":43.0027,"raan_deg":114.4829,"arg_perigee_deg":266.5545,"mean_anomaly_deg":93.5172,"bstar":3.221e-5,"rev_number":16858,"period_min":94.267203640939,"perigee_km":482.25811738028,"apogee_km":483.8842237167,"semimajor_km":6861.2081705485,"source":"CELESTRAK","updated_at":"2026-05-25T13:38:18.014316Z"}}